�������l�o���
Date,Time,MP-1(��Sv/h),MP-2(��Sv/h),MP-3(��Sv/h),MP-4(��Sv/h),MP-5(��Sv/h),MP-6(��Sv/h),MP-7(��Sv/h),MP-8(��Sv/h),����,����(m/s),���J
2019/03/27,00:00,0.786,1.160,0.794,1.476,1.069,0.445,0.786,0.743,�k��,10.5,��
2019/03/27,00:10,0.787,1.160,0.795,1.474,1.071,0.444,0.786,0.744,���k��,8.5,��
2019/03/27,00:20,0.787,1.159,0.795,1.476,1.070,0.442,0.787,0.745,���k��,8.5,��
2019/03/27,00:30,0.785,1.160,0.795,1.477,1.067,0.443,0.785,0.744,���k��,9.1,��
2019/03/27,00:40,0.786,1.161,0.795,1.474,1.067,0.445,0.785,0.743,���k��,6.5,��
2019/03/27,00:50,0.785,1.159,0.793,1.475,1.067,0.443,0.787,0.742,��,3.9,��
2019/03/27,01:00,0.784,1.160,0.796,1.477,1.068,0.444,0.787,0.744,��,1.9,��
2019/03/27,01:10,0.786,1.160,0.795,1.477,1.069,0.444,0.784,0.743,-,CALM,��
2019/03/27,01:20,0.784,1.159,0.794,1.478,1.066,0.443,0.787,0.744,�쐼,1.7,��
2019/03/27,01:30,0.785,1.160,0.793,1.476,1.068,0.443,0.787,0.743,���k��,1.7,��
2019/03/27,01:40,0.784,1.161,0.795,1.477,1.069,0.444,0.786,0.742,-,CALM,��
2019/03/27,01:50,0.784,1.158,0.793,1.475,1.068,0.443,0.784,0.745,-,CALM,��
2019/03/27,02:00,0.785,1.158,0.793,1.475,1.068,0.443,0.786,0.743,�k��,3.1,��
2019/03/27,02:10,0.784,1.159,0.793,1.474,1.069,0.443,0.786,0.742,���k��,3.9,��
2019/03/27,02:20,0.785,1.157,0.793,1.474,1.067,0.442,0.784,0.745,���k��,4.1,��
2019/03/27,02:30,0.785,1.158,0.795,1.474,1.066,0.443,0.785,0.743,���k��,3.8,��
2019/03/27,02:40,0.784,1.158,0.793,1.476,1.066,0.443,0.787,0.744,���k��,3.5,��
2019/03/27,02:50,0.781,1.157,0.794,1.474,1.066,0.442,0.785,0.741,���k��,4.3,��
2019/03/27,03:00,0.783,1.158,0.792,1.475,1.064,0.442,0.784,0.742,���k��,5.6,��
2019/03/27,03:10,0.783,1.160,0.794,1.477,1.068,0.443,0.784,0.742,���k��,6.0,��
2019/03/27,03:20,0.781,1.157,0.794,1.474,1.066,0.443,0.783,0.742,�k��,6.5,��
2019/03/27,03:30,0.785,1.158,0.794,1.472,1.066,0.442,0.785,0.743,���k��,5.4,��
2019/03/27,03:40,0.785,1.159,0.793,1.472,1.067,0.444,0.783,0.742,���k��,5.8,��
2019/03/27,03:50,0.783,1.157,0.794,1.475,1.065,0.443,0.783,0.742,���k��,4.1,��
2019/03/27,04:00,0.782,1.157,0.792,1.472,1.068,0.443,0.784,0.741,�k��,3.8,��
2019/03/27,04:10,0.783,1.159,0.793,1.472,1.065,0.443,0.786,0.743,�k��,2.6,��
2019/03/27,04:20,0.783,1.159,0.791,1.473,1.067,0.443,0.783,0.741,�k��,2.3,��
2019/03/27,04:30,0.783,1.158,0.793,1.469,1.068,0.443,0.786,0.743,���k��,2.8,��
2019/03/27,04:40,0.782,1.157,0.793,1.473,1.066,0.441,0.785,0.742,���k��,2.9,��
2019/03/27,04:50,0.783,1.158,0.793,1.473,1.066,0.444,0.784,0.743,���쐼,2.6,��
2019/03/27,05:00,0.783,1.159,0.793,1.473,1.066,0.443,0.785,0.740,���쐼,3.4,��
2019/03/27,05:10,0.783,1.156,0.791,1.472,1.065,0.442,0.783,0.744,���쐼,2.8,��
2019/03/27,05:20,0.783,1.156,0.792,1.473,1.066,0.443,0.785,0.741,��,2.3,��
2019/03/27,05:30,0.783,1.158,0.793,1.473,1.066,0.441,0.784,0.741,�쐼,1.9,��
2019/03/27,05:40,0.783,1.156,0.791,1.472,1.066,0.441,0.783,0.742,�쐼,1.2,��
2019/03/27,05:50,0.782,1.158,0.792,1.471,1.068,0.443,0.782,0.741,��,1.1,��
2019/03/27,06:00,0.782,1.158,0.790,1.471,1.065,0.442,0.782,0.742,���k��,0.9,��
2019/03/27,06:10,0.782,1.157,0.791,1.470,1.066,0.442,0.783,0.743,��,0.6,��
2019/03/27,06:20,0.781,1.155,0.793,1.474,1.067,0.442,0.784,0.743,��,0.6,��
2019/03/27,06:30,0.782,1.157,0.792,1.475,1.066,0.443,0.783,0.741,�k�k��,2.6,��
2019/03/27,06:40,0.784,1.157,0.794,1.471,1.067,0.443,0.784,0.742,�k�k��,4.9,��
2019/03/27,06:50,0.783,1.159,0.794,1.473,1.068,0.442,0.786,0.742,�k��,3.9,��
2019/03/27,07:00,0.785,1.158,0.792,1.473,1.065,0.443,0.787,0.743,�k�k��,4.6,��
2019/03/27,07:10,0.785,1.158,0.792,1.473,1.068,0.443,0.784,0.743,�k�k��,3.4,��
2019/03/27,07:20,0.785,1.157,0.794,1.472,1.068,0.443,0.786,0.743,�k,2.9,��
2019/03/27,07:30,0.784,1.157,0.792,1.473,1.068,0.444,0.786,0.743,�k,3.3,��
2019/03/27,07:40,0.784,1.156,0.791,1.474,1.068,0.442,0.786,0.743,�k�k��,3.9,��
2019/03/27,07:50,0.784,1.157,0.793,1.474,1.068,0.444,0.786,0.743,�k�k��,3.5,��
2019/03/27,08:00,0.785,1.159,0.792,1.474,1.067,0.444,0.785,0.743,�k,2.9,��
2019/03/27,08:10,0.786,1.158,0.793,1.476,1.068,0.443,0.785,0.743,�k�k��,3.1,��
2019/03/27,08:20,0.786,1.155,0.792,1.474,1.069,0.442,0.787,0.743,�k��,1.2,��
2019/03/27,08:30,0.784,1.158,0.793,1.474,1.068,0.443,0.785,0.743,��쓌,1.7,��
2019/03/27,08:40,0.784,1.154,0.793,1.474,1.066,0.443,0.784,0.743,��쓌,4.2,��
2019/03/27,08:50,0.786,1.156,0.792,1.475,1.066,0.444,0.784,0.744,��쓌,6.1,��
2019/03/27,09:00,0.786,1.156,0.793,1.476,1.066,0.443,0.783,0.743,��쓌,5.0,��
2019/03/27,09:10,0.786,1.156,0.795,1.474,1.068,0.444,0.785,0.744,��쓌,5.2,��
2019/03/27,09:20,0.787,1.155,0.795,1.474,1.067,0.443,0.785,0.742,��쓌,4.8,��
2019/03/27,09:30,0.786,1.156,0.793,1.475,1.071,0.442,0.785,0.745,�쓌,6.1,��
2019/03/27,09:40,0.786,1.155,0.794,1.474,1.066,0.443,0.785,0.740,�쓌,6.0,��
2019/03/27,09:50,0.786,1.157,0.793,1.475,1.069,0.443,0.783,0.740,�쓌,6.5,��
2019/03/27,10:00,0.787,1.157,0.793,1.474,1.072,0.442,0.785,0.742,�쓌,5.5,��
2019/03/27,10:10,0.788,1.157,0.794,1.475,1.069,0.443,0.786,0.741,�쓌,6.1,��
2019/03/27,10:20,0.786,1.156,0.796,1.473,1.069,0.442,0.785,0.740,�쓌,6.3,��
2019/03/27,10:30,0.787,1.154,0.793,1.476,1.068,0.443,0.784,0.740,�쓌,7.5,��
2019/03/27,10:40,0.788,1.158,0.793,1.475,1.069,0.445,0.784,0.742,��쓌,7.2,��
2019/03/27,10:50,0.787,1.156,0.793,1.477,1.070,0.442,0.785,0.740,��쓌,6.2,��
2019/03/27,11:00,0.787,1.158,0.795,1.477,1.069,0.442,0.786,0.741,��쓌,4.2,��
2019/03/27,11:10,0.788,1.160,0.796,1.476,1.071,0.445,0.784,0.742,��쓌,2.3,��
2019/03/27,11:20,0.788,1.160,0.796,1.477,1.074,0.444,0.784,0.741,��쓌,1.9,��
2019/03/27,11:30,0.788,1.158,0.795,1.478,1.071,0.444,0.785,0.740,��,4.3,��
2019/03/27,11:40,0.787,1.158,0.797,1.478,1.070,0.444,0.787,0.741,���쐼,6.8,��
2019/03/27,11:50,0.788,1.160,0.794,1.479,1.072,0.444,0.788,0.741,��,7.7,��
2019/03/27,12:00,0.788,1.159,0.796,1.476,1.069,0.445,0.787,0.742,���k��,7.5,��
2019/03/27,12:10,0.786,1.162,0.797,1.479,1.071,0.444,0.787,0.741,��,4.3,��
2019/03/27,12:20,0.786,1.159,0.795,1.480,1.070,0.444,0.788,0.742,��,7.0,��
2019/03/27,12:30,0.787,1.163,0.793,1.480,1.073,0.445,0.788,0.744,��,10.5,��
2019/03/27,12:40,0.788,1.160,0.796,1.479,1.071,0.448,0.787,0.742,��,9.9,��
2019/03/27,12:50,0.790,1.161,0.794,1.480,1.071,0.447,0.787,0.741,��,8.8,��
2019/03/27,13:00,0.787,1.163,0.797,1.481,1.072,0.447,0.788,0.743,��,8.7,��
2019/03/27,13:10,0.788,1.159,0.795,1.482,1.071,0.445,0.788,0.741,���k��,8.9,��
2019/03/27,13:20,0.787,1.159,0.795,1.479,1.071,0.446,0.789,0.741,��,9.2,��
2019/03/27,13:30,0.789,1.162,0.796,1.481,1.073,0.447,0.787,0.741,��,10.3,��
2019/03/27,13:40,0.788,1.158,0.796,1.479,1.075,0.447,0.787,0.744,��,9.2,��
2019/03/27,13:50,0.789,1.159,0.797,1.479,1.074,0.445,0.789,0.743,��,9.7,��
2019/03/27,14:00,0.791,1.158,0.796,1.481,1.071,0.447,0.787,0.742,��,8.4,��
2019/03/27,14:10,0.789,1.159,0.796,1.480,1.073,0.447,0.788,0.744,��,6.4,��
2019/03/27,14:20,0.788,1.159,0.796,1.480,1.075,0.445,0.789,0.741,��,4.6,��
2019/03/27,14:30,0.791,1.160,0.796,1.482,1.072,0.446,0.787,0.743,��,2.6,��
2019/03/27,14:40,0.789,1.160,0.795,1.484,1.072,0.445,0.788,0.742,��,6.5,��
2019/03/27,14:50,0.787,1.163,0.796,1.480,1.071,0.444,0.788,0.742,��쓌,8.5,��
2019/03/27,15:00,0.789,1.162,0.796,1.481,1.074,0.445,0.787,0.743,��쓌,7.4,��
2019/03/27,15:10,0.788,1.162,0.795,1.482,1.074,0.445,0.789,0.742,��쓌,8.1,��
2019/03/27,15:20,0.788,1.163,0.796,1.483,1.076,0.446,0.787,0.742,��쓌,7.0,��
2019/03/27,15:30,0.787,1.162,0.796,1.484,1.073,0.446,0.786,0.742,��쓌,7.6,��
2019/03/27,15:40,0.789,1.162,0.796,1.481,1.074,0.444,0.788,0.743,��쓌,10.2,��
2019/03/27,15:50,0.787,1.160,0.794,1.483,1.071,0.445,0.787,0.741,��,8.5,��
2019/03/27,16:00,0.788,1.161,0.795,1.480,1.072,0.446,0.786,0.743,��쓌,8.9,��
2019/03/27,16:10,0.787,1.161,0.795,1.480,1.074,0.446,0.788,0.742,��,8.4,��
2019/03/27,16:20,0.787,1.162,0.797,1.481,1.071,0.447,0.787,0.742,��,7.6,��
2019/03/27,16:30,0.791,1.161,0.799,1.480,1.073,0.447,0.788,0.743,��쓌,6.4,��
2019/03/27,16:40,0.790,1.164,0.799,1.483,1.072,0.447,0.786,0.745,��쓌,7.3,��
2019/03/27,16:50,0.788,1.163,0.798,1.481,1.071,0.448,0.788,0.744,��쓌,8.3,��
2019/03/27,17:00,0.793,1.163,0.798,1.481,1.070,0.447,0.789,0.743,��쓌,7.2,��
2019/03/27,17:10,0.790,1.164,0.799,1.482,1.072,0.450,0.787,0.743,��,7.3,��
2019/03/27,17:20,0.790,1.166,0.801,1.481,1.074,0.448,0.787,0.744,��,5.6,��
2019/03/27,17:30,0.792,1.166,0.800,1.480,1.071,0.448,0.788,0.746,��,5.0,��
2019/03/27,17:40,0.791,1.167,0.800,1.481,1.074,0.449,0.788,0.745,��,5.6,��
2019/03/27,17:50,0.791,1.168,0.800,1.480,1.073,0.448,0.787,0.744,��,7.1,��
2019/03/27,18:00,0.791,1.167,0.800,1.480,1.074,0.450,0.786,0.746,��,8.2,��
2019/03/27,18:10,0.792,1.164,0.799,1.480,1.078,0.450,0.788,0.745,��쐼,7.3,��
2019/03/27,18:20,0.792,1.166,0.798,1.479,1.074,0.448,0.789,0.746,��쐼,5.8,��
2019/03/27,18:30,0.792,1.168,0.797,1.480,1.075,0.448,0.787,0.745,��쐼,5.3,��
2019/03/27,18:40,0.792,1.166,0.799,1.482,1.073,0.449,0.789,0.746,�쐼,5.3,��
2019/03/27,18:50,0.790,1.167,0.797,1.480,1.075,0.447,0.790,0.745,�쐼,4.2,��
2019/03/27,19:00,0.791,1.166,0.798,1.481,1.076,0.449,0.789,0.746,�쐼,3.0,��
2019/03/27,19:10,0.793,1.167,0.798,1.482,1.073,0.446,0.789,0.745,�쐼,3.9,��
2019/03/27,19:20,0.789,1.166,0.798,1.480,1.074,0.448,0.789,0.745,��쐼,4.3,��
2019/03/27,19:30,0.791,1.165,0.799,1.478,1.075,0.447,0.789,0.744,�쐼,2.9,��
2019/03/27,19:40,0.792,1.165,0.800,1.482,1.074,0.447,0.789,0.744,�쐼,2.3,��
2019/03/27,19:50,0.789,1.165,0.799,1.480,1.073,0.449,0.788,0.745,�쐼,4.6,��
2019/03/27,20:00,0.790,1.165,0.799,1.484,1.074,0.446,0.789,0.745,���쐼,6.3,��
2019/03/27,20:10,0.790,1.165,0.799,1.479,1.075,0.447,0.789,0.744,���쐼,6.8,��
2019/03/27,20:20,0.791,1.164,0.800,1.480,1.076,0.448,0.789,0.745,���쐼,5.6,��
2019/03/27,20:30,0.793,1.163,0.800,1.483,1.074,0.448,0.789,0.745,���쐼,3.9,��
2019/03/27,20:40,0.792,1.163,0.800,1.480,1.073,0.448,0.789,0.745,���쐼,4.4,��
2019/03/27,20:50,0.794,1.162,0.798,1.481,1.075,0.448,0.789,0.745,���쐼,4.6,��
2019/03/27,21:00,0.792,1.163,0.798,1.478,1.074,0.449,0.788,0.745,���쐼,3.5,��
2019/03/27,21:10,0.792,1.165,0.801,1.479,1.075,0.448,0.790,0.745,�쐼,4.1,��
2019/03/27,21:20,0.792,1.163,0.802,1.481,1.075,0.448,0.791,0.745,���쐼,5.3,��
2019/03/27,21:30,0.791,1.164,0.800,1.480,1.074,0.449,0.791,0.747,�쐼,5.2,��
2019/03/27,21:40,0.792,1.164,0.800,1.480,1.077,0.447,0.793,0.746,���쐼,5.5,��
2019/03/27,21:50,0.793,1.165,0.800,1.482,1.075,0.449,0.790,0.747,��,4.8,�L
2019/03/27,22:00,0.794,1.165,0.804,1.483,1.076,0.448,0.789,0.746,���쐼,5.1,��
2019/03/27,22:10,0.794,1.166,0.801,1.481,1.074,0.449,0.790,0.747,�쐼,4.8,��
2019/03/27,22:20,0.795,1.169,0.801,1.483,1.076,0.449,0.790,0.747,�쐼,6.2,��
2019/03/27,22:30,0.791,1.164,0.802,1.483,1.075,0.448,0.790,0.746,�쐼,9.1,��
2019/03/27,22:40,0.794,1.166,0.800,1.480,1.074,0.450,0.791,0.747,��쐼,8.6,��
2019/03/27,22:50,0.792,1.166,0.800,1.483,1.076,0.449,0.789,0.747,�쐼,9.0,��
2019/03/27,23:00,0.793,1.163,0.801,1.483,1.076,0.448,0.791,0.745,�쐼,7.6,��
2019/03/27,23:10,0.792,1.166,0.801,1.483,1.075,0.448,0.790,0.745,�쐼,8.4,��
2019/03/27,23:20,0.793,1.165,0.804,1.486,1.079,0.449,0.792,0.747,��,10.5,�L
2019/03/27,23:30,0.797,1.167,0.805,1.487,1.078,0.455,0.794,0.747,��,12.1,�L
2019/03/27,23:40,0.797,1.165,0.809,1.489,1.081,0.457,0.794,0.748,��,13.0,�L
2019/03/27,23:50,0.798,1.166,0.808,1.490,1.080,0.459,0.792,0.750,��,13.0,�L
